| time (UTC) | temp C | wind direction | speed KPH | gust KPH | rain 1hr cm | rain 24hr cm | rain mn cm | humidity % | barometer mb |
| 20260510190508 | 24 | 30 | 1.6 | 8.0 | 0.00 | 0.00 | 0.00 | 74 | 1013.2 |
| 20260510190022 | 24 | 111 | 3.2 | 14.5 | 0.00 | 0.00 | 0.00 | 74 | 1013.1 |
| 20260510185504 | 24 | 120 | 3.2 | 16.1 | 0.00 | 0.00 | 0.00 | 75 | 1013.2 |
| 20260510185003 | 24 | 108 | 4.8 | 16.1 | 0.00 | 0.00 | 0.00 | 75 | 1013.3 |
| 20260510184513 | 24 | 212 | 3.2 | 16.1 | 0.00 | 0.00 | 0.00 | 75 | 1013.2 |
| 20260510184013 | 23 | 124 | 3.2 | 8.0 | 0.00 | 0.00 | 0.00 | 74 | 1013.3 |
| 20260510183504 | 23 | 26 | 0.0 | 6.4 | 0.00 | 0.00 | 0.00 | 74 | 1013.4 |
| 20260510183010 | 23 | 316 | 1.6 | 6.4 | 0.00 | 0.00 | 0.00 | 74 | 1013.4 |
| 20260510182508 | 23 | 61 | 0.0 | 6.4 | 0.00 | 0.00 | 0.00 | 75 | 1013.3 |
| 20260510182012 | 23 | 103 | 1.6 | 11.3 | 0.00 | 0.00 | 0.00 | 73 | 1013.4 |
| 20260510181506 | 23 | 93 | 0.0 | 11.3 | 0.00 | 0.00 | 0.00 | 73 | 1013.5 |
| 20260510181010 | 23 | 193 | 1.6 | 16.1 | 0.00 | 0.00 | 0.00 | 73 | 1013.3 |
| 20260510180507 | 23 | 51 | 4.8 | 17.7 | 0.00 | 0.00 | 0.00 | 73 | 1013.4 |
| 20260510180002 | 24 | 40 | 6.4 | 17.7 | 0.00 | 0.00 | 0.00 | 72 | 1013.5 |
| 20260510175506 | 25 | 323 | 3.2 | 16.1 | 0.00 | 0.00 | 0.00 | 73 | 1013.4 |
| 20260510175008 | 25 | 22 | 3.2 | 14.5 | 0.00 | 0.00 | 0.00 | 73 | 1013.5 |
| 20260510174522 | 24 | 340 | 4.8 | 12.9 | 0.00 | 0.00 | 0.00 | 73 | 1013.6 |
| 20260510174007 | 24 | 325 | 1.6 | 9.7 | 0.00 | 0.00 | 0.00 | 75 | 1013.6 |
| 20260510173506 | 23 | 108 | 0.0 | 12.9 | 0.00 | 0.00 | 0.00 | 73 | 1013.6 |
| 20260510173017 | 23 | 83 | 3.2 | 16.1 | 0.00 | 0.00 | 0.00 | 73 | 1013.7 |
| 20260510172509 | 23 | 9 | 3.2 | 17.7 | 0.00 | 0.00 | 0.00 | 73 | 1013.6 |
| 20260510172004 | 23 | 129 | 4.8 | 22.5 | 0.00 | 0.00 | 0.00 | 72 | 1013.6 |
| 20260510171504 | 24 | 265 | 3.2 | 22.5 | 0.00 | 0.00 | 0.00 | 71 | 1013.5 |
| 20260510171002 | 25 | 252 | 4.8 | 12.9 | 0.00 | 0.00 | 0.00 | 72 | 1013.6 |
| 20260510170502 | 24 | 221 | 3.2 | 12.9 | 0.00 | 0.00 | 0.00 | 74 | 1013.6 |
| 20260510170003 | 24 | 210 | 3.2 | 11.3 | 0.00 | 0.00 | 0.00 | 73 | 1013.6 |
| 20260510165502 | 24 | 193 | 1.6 | 14.5 | 0.00 | 0.00 | 0.00 | 74 | 1013.6 |
| 20260510165003 | 23 | 32 | 1.6 | 14.5 | 0.00 | 0.00 | 0.00 | 73 | 1013.7 |
| 20260510164503 | 23 | 284 | 6.4 | 14.5 | 0.00 | 0.00 | 0.00 | 74 | 1013.7 |
| 20260510164004 | 23 | 232 | 3.2 | 12.9 | 0.00 | 0.00 | 0.00 | 75 | 1013.7 |
| 20260510163502 | 23 | 250 | 3.2 | 11.3 | 0.00 | 0.00 | 0.00 | 73 | 1013.7 |
| 20260510163004 | 23 | 61 | 4.8 | 12.9 | 0.00 | 0.00 | 0.00 | 73 | 1013.6 |
| 20260510162503 | 23 | 101 | 3.2 | 12.9 | 0.00 | 0.00 | 0.00 | 73 | 1013.7 |
| 20260510162003 | 23 | 309 | 3.2 | 17.7 | 0.00 | 0.00 | 0.00 | 72 | 1013.7 |
| 20260510161505 | 23 | 309 | 1.6 | 17.7 | 0.00 | 0.00 | 0.00 | 75 | 1013.6 |
| 20260510161002 | 23 | 215 | 3.2 | 24.1 | 0.00 | 0.00 | 0.00 | 73 | 1013.7 |
| 20260510160503 | 23 | 149 | 4.8 | 24.1 | 0.00 | 0.00 | 0.00 | 76 | 1013.7 |
| 20260510160004 | 23 | 302 | 4.8 | 16.1 | 0.00 | 0.00 | 0.00 | 73 | 1013.7 |
| 20260510155502 | 23 | 279 | 4.8 | 12.9 | 0.00 | 0.00 | 0.00 | 73 | 1013.7 |
| 20260510155002 | 23 | 237 | 1.6 | 14.5 | 0.00 | 0.00 | 0.00 | 75 | 1013.7 |
| 20260510154504 | 22 | 298 | 3.2 | 16.1 | 0.00 | 0.00 | 0.00 | 75 | 1013.7 |
| 20260510154002 | 22 | 146 | 3.2 | 16.1 | 0.00 | 0.00 | 0.00 | 75 | 1013.7 |
| 20260510153502 | 22 | 102 | 3.2 | 16.1 | 0.00 | 0.00 | 0.00 | 74 | 1013.7 |
| 20260510153009 | 22 | 243 | 4.8 | 17.7 | 0.00 | 0.00 | 0.00 | 74 | 1013.7 |
| 20260510152503 | 22 | 15 | 4.8 | 17.7 | 0.00 | 0.00 | 0.00 | 74 | 1013.8 |
| 20260510152002 | 22 | 68 | 4.8 | 14.5 | 0.00 | 0.00 | 0.00 | 75 | 1013.8 |
| 20260510151504 | 22 | 124 | 3.2 | 16.1 | 0.00 | 0.00 | 0.00 | 74 | 1013.8 |
| 20260510151004 | 22 | 245 | 3.2 | 24.1 | 0.00 | 0.00 | 0.00 | 76 | 1013.8 |
| 20260510150503 | 22 | 257 | 6.4 | 24.1 | 0.00 | 0.00 | 0.00 | 75 | 1013.7 |
| 20260510150004 | 22 | 144 | 3.2 | 12.9 | 0.00 | 0.00 | 0.00 | 76 | 1013.7 |
| 20260510145504 | 22 | 257 | 3.2 | 12.9 | 0.00 | 0.00 | 0.00 | 74 | 1013.7 |
| 20260510145005 | 22 | 235 | 4.8 | 11.3 | 0.00 | 0.00 | 0.00 | 75 | 1013.6 |
| 20260510144508 | 21 | 9 | 3.2 | 14.5 | 0.00 | 0.00 | 0.00 | 78 | 1013.5 |
| 20260510144004 | 21 | 93 | 3.2 | 14.5 | 0.00 | 0.00 | 0.00 | 76 | 1013.6 |
| 20260510143502 | 21 | 245 | 1.6 | 14.5 | 0.00 | 0.00 | 0.00 | 77 | 1013.5 |
| 20260510143005 | 21 | 150 | 6.4 | 14.5 | 0.00 | 0.00 | 0.00 | 77 | 1013.5 |
| 20260510142505 | 21 | 144 | 3.2 | 14.5 | 0.00 | 0.00 | 0.00 | 79 | 1013.6 |
| 20260510142002 | 20 | 36 | 3.2 | 14.5 | 0.00 | 0.00 | 0.00 | 78 | 1013.7 |
| 20260510141504 | 20 | 360 | 4.8 | 12.9 | 0.00 | 0.00 | 0.00 | 78 | 1013.7 |
| 20260510141004 | 20 | 144 | 3.2 | 14.5 | 0.00 | 0.00 | 0.00 | 79 | 1013.7 |
| 20260510140503 | 20 | 44 | 4.8 | 12.9 | 0.00 | 0.00 | 0.00 | 79 | 1013.7 |
| 20260510140008 | 20 | 226 | 3.2 | 14.5 | 0.00 | 0.00 | 0.00 | 82 | 1013.7 |
| 20260510135504 | 19 | 309 | 3.2 | 14.5 | 0.00 | 0.00 | 0.00 | 83 | 1013.7 |
| 20260510135003 | 18 | 17 | 4.8 | 12.9 | 0.00 | 0.00 | 0.00 | 84 | 1013.6 |
| 20260510134504 | 18 | 140 | 3.2 | 6.4 | 0.00 | 0.00 | 0.00 | 84 | 1013.6 |
| 20260510134003 | 17 | 126 | 0.0 | 6.4 | 0.00 | 0.00 | 0.00 | 84 | 1013.6 |
| 20260510133503 | 17 | 9 | 3.2 | 9.7 | 0.00 | 0.00 | 0.00 | 85 | 1013.6 |
| 20260510133008 | 16 | 178 | 1.6 | 9.7 | 0.00 | 0.00 | 0.00 | 84 | 1013.4 |
| 20260510132506 | 15 | 178 | 3.2 | 6.4 | 0.00 | 0.00 | 0.00 | 83 | 1013.6 |
| 20260510132006 | 15 | 137 | 1.6 | 6.4 | 0.00 | 0.00 | 0.00 | 85 | 1013.7 |
| 20260510131508 | 14 | 120 | 1.6 | 8.0 | 0.00 | 0.00 | 0.00 | 87 | 1013.7 |
| 20260510131004 | 13 | 243 | 3.2 | 8.0 | 0.00 | 0.00 | 0.00 | 87 | 1013.7 |
| 20260510130504 | 13 | 137 | 0.0 | 6.4 | 0.00 | 0.00 | 0.00 | 87 | 1013.7 |
| 20260510130016 | 12 | 142 | 1.6 | 8.0 | 0.00 | 0.00 | 0.00 | 87 | 1013.7 |
| 20260510125503 | 12 | 108 | 1.6 | 8.0 | 0.00 | 0.00 | 0.00 | 87 | 1013.7 |
| 20260510125005 | 12 | 126 | 1.6 | 3.2 | 0.00 | 0.00 | 0.00 | 87 | 1013.7 |
| 20260510124508 | 12 | 120 | 0.0 | 3.2 | 0.00 | 0.00 | 0.00 | 88 | 1013.8 |
| 20260510124005 | 11 | 111 | 0.0 | 6.4 | 0.00 | 0.00 | 0.00 | 88 | 1013.7 |
| 20260510123504 | 11 | 137 | 1.6 | 6.4 | 0.00 | 0.00 | 0.00 | 87 | 1013.7 |
| 20260510123007 | 11 | 178 | 0.0 | 3.2 | 0.00 | 0.00 | 0.00 | 87 | 1013.7 |
| 20260510122505 | 11 | 137 | 1.6 | 3.2 | 0.00 | 0.00 | 0.00 | 87 | 1013.7 |
| 20260510122008 | 11 | 93 | 0.0 | 1.6 | 0.00 | 0.00 | 0.00 | 87 | 1013.6 |
| 20260510121508 | 11 | 178 | 0.0 | 1.6 | 0.00 | 0.00 | 0.00 | 87 | 1013.5 |
| 20260510121005 | 11 | 137 | 0.0 | 3.2 | 0.00 | 0.00 | 0.00 | 87 | 1013.5 |
| 20260510120505 | 11 | 137 | 0.0 | 3.2 | 0.00 | 0.00 | 0.00 | 87 | 1013.5 |
| 20260510120024 | 11 | 137 | 0.0 | 3.2 | 0.00 | 0.00 | 0.00 | 87 | 1013.5 |
| 20260510115502 | 11 | 51 | 0.0 | 3.2 | 0.00 | 0.00 | 0.00 | 87 | 1013.3 |
| 20260510115006 | 10 | 51 | 0.0 | 3.2 | 0.00 | 0.00 | 0.00 | 87 | 1013.2 |
| 20260510114514 | 10 | 93 | 0.0 | 3.2 | 0.00 | 0.00 | 0.00 | 87 | 1013.1 |
| 20260510114003 | 10 | 51 | 0.0 | 3.2 | 0.00 | 0.00 | 0.00 | 87 | 1013.0 |
| 20260510113505 | 10 | 51 | 0.0 | 4.8 | 0.00 | 0.00 | 0.00 | 87 | 1012.9 |
| 20260510113009 | 10 | 34 | 0.0 | 4.8 | 0.00 | 0.00 | 0.00 | 87 | 1012.9 |
| 20260510112504 | 10 | 178 | 0.0 | 3.2 | 0.00 | 0.00 | 0.00 | 87 | 1012.7 |
| 20260510112005 | 10 | 153 | 0.0 | 3.2 | 0.00 | 0.00 | 0.00 | 88 | 1012.7 |
| 20260510111503 | 10 | 146 | 0.0 | 3.2 | 0.00 | 0.00 | 0.00 | 88 | 1012.8 |
| 20260510111004 | 10 | 34 | 0.0 | 3.2 | 0.00 | 0.00 | 0.00 | 88 | 1012.8 |
| 20260510110507 | 10 | 9 | 0.0 | 4.8 | 0.00 | 0.00 | 0.00 | 88 | 1012.7 |
| 20260510110005 | 10 | 93 | 0.0 | 4.8 | 0.00 | 0.00 | 0.00 | 88 | 1012.9 |
| 20260510105504 | 10 | 137 | 1.6 | 9.7 | 0.00 | 0.00 | 0.00 | 88 | 1012.9 |
| 20260510105002 | 9 | 120 | 4.8 | 9.7 | 0.00 | 0.00 | 0.00 | 88 | 1012.8 |
| 20260510104504 | 9 | 19 | 0.0 | 4.8 | 0.00 | 0.00 | 0.00 | 88 | 1012.4 |
| 20260510104003 | 9 | 34 | 1.6 | 4.8 | 0.00 | 0.00 | 0.00 | 88 | 1012.5 |
| 20260510101505 | 9 | 51 | 0.0 | 4.8 | 0.00 | 0.00 | 0.00 | 87 | 1012.2 |
| 20260510101005 | 9 | 44 | 1.6 | 3.2 | 0.00 | 0.00 | 0.00 | 87 | 1012.3 |
| 20260510100503 | 9 | 34 | 0.0 | 3.2 | 0.00 | 0.00 | 0.00 | 87 | 1012.1 |
| 20260510100004 | 9 | 68 | 0.0 | 3.2 | 0.00 | 0.00 | 0.00 | 87 | 1011.9 |
| 20260510095505 | 9 | 34 | 0.0 | 1.6 | 0.00 | 0.00 | 0.00 | 87 | 1011.9 |
| 20260510095002 | 9 | 51 | 0.0 | 1.6 | 0.00 | 0.00 | 0.00 | 87 | 1011.9 |
| 20260510094505 | 9 | 93 | 0.0 | 3.2 | 0.00 | 0.00 | 0.00 | 87 | 1011.9 |
| 20260510094002 | 9 | 51 | 0.0 | 3.2 | 0.00 | 0.00 | 0.00 | 87 | 1012.0 |
| 20260510091508 | 9 | 22 | 1.6 | 3.2 | 0.00 | 0.00 | 0.00 | 87 | 1011.8 |
| 20260510091006 | 9 | 26 | 0.0 | 3.2 | 0.00 | 0.00 | 0.00 | 87 | 1011.7 |
| 20260510090504 | 9 | 120 | 0.0 | 6.4 | 0.00 | 0.00 | 0.00 | 87 | 1011.8 |
| 20260510090008 | 9 | 9 | 0.0 | 6.4 | 0.00 | 0.00 | 0.00 | 87 | 1011.7 |
| 20260510085504 | 10 | 22 | 1.6 | 8.0 | 0.00 | 0.00 | 0.00 | 87 | 1012.0 |
| 20260510085003 | 10 | 51 | 1.6 | 8.0 | 0.00 | 0.00 | 0.00 | 87 | 1011.8 |
| 20260510084504 | 10 | 313 | 3.2 | 8.0 | 0.00 | 0.00 | 0.00 | 88 | 1012.1 |
| 20260510084008 | 10 | 105 | 3.2 | 12.9 | 0.00 | 0.00 | 0.00 | 87 | 1011.9 |
| 20260510083503 | 9 | 314 | 1.6 | 12.9 | 0.00 | 0.00 | 0.00 | 88 | 1011.7 |
| 20260510083002 | 9 | 146 | 3.2 | 11.3 | 0.00 | 0.00 | 0.00 | 88 | 1012.4 |
| 20260510082503 | 9 | 140 | 8.0 | 14.5 | 0.00 | 0.00 | 0.00 | 89 | 1012.0 |
| 20260510081511 | 8 | 334 | 0.0 | 14.5 | 0.00 | 0.00 | 0.00 | 91 | 1011.4 |
| 20260510081003 | 7 | 41 | 3.2 | 11.3 | 0.00 | 0.00 | 0.00 | 90 | 1012.0 |
| 20260510080503 | 7 | 137 | 0.0 | 1.6 | 0.00 | 0.00 | 0.00 | 91 | 1011.1 |
| 20260510080008 | 7 | 26 | 0.0 | 4.8 | 0.00 | 0.00 | 0.00 | 90 | 1011.1 |
| 20260510075503 | 7 | 93 | 0.0 | 4.8 | 0.00 | 0.00 | 0.00 | 90 | 1011.1 |
| 20260510075004 | 7 | 22 | 0.0 | 4.8 | 0.00 | 0.00 | 0.00 | 91 | 1011.1 |
| 20260510074510 | 7 | 34 | 3.2 | 4.8 | 0.00 | 0.00 | 0.00 | 91 | 1011.2 |
| 20260510074010 | 7 | 239 | 0.0 | 1.6 | 0.00 | 0.00 | 0.00 | 91 | 1011.1 |
| 20260510073502 | 7 | 51 | 0.0 | 1.6 | 0.00 | 0.00 | 0.00 | 91 | 1011.1 |
| 20260510073010 | 7 | 93 | 0.0 | 3.2 | 0.00 | 0.00 | 0.00 | 91 | 1011.0 |
| 20260510072506 | 7 | 34 | 0.0 | 3.2 | 0.00 | 0.00 | 0.00 | 91 | 1011.0 |
| 20260510071503 | 7 | 265 | 0.0 | 1.6 | 0.00 | 0.00 | 0.00 | 91 | 1011.0 |
| 20260510071002 | 7 | 247 | 0.0 | 1.6 | 0.00 | 0.00 | 0.00 | 91 | 1011.0 |
| 20260510070503 | 7 | 51 | 0.0 | 3.2 | 0.00 | 0.00 | 0.00 | 91 | 1010.9 |
| 20260510061519 | 8 | 9 | 0.0 | 0.0 | 0.00 | 0.00 | 0.00 | 92 | 1010.8 |
| 20260510061006 | 8 | 9 | 0.0 | 0.0 | 0.00 | 0.00 | 0.00 | 92 | 1010.8 |
| 20260510060509 | 8 | 51 | 0.0 | 1.6 | 0.00 | 0.00 | 0.00 | 92 | 1010.7 |
| 20260510060010 | 8 | 51 | 0.0 | 1.6 | 0.00 | 0.00 | 0.00 | 92 | 1010.8 |
| 20260510055506 | 8 | 34 | 0.0 | 1.6 | 0.00 | 0.00 | 0.00 | 92 | 1010.8 |
| 20260510055008 | 8 | 9 | 0.0 | 1.6 | 0.00 | 0.00 | 0.00 | 92 | 1010.8 |
| 20260510054504 | 8 | 9 | 0.0 | 3.2 | 0.00 | 0.00 | 0.00 | 92 | 1010.8 |
| 20260510054008 | 8 | 93 | 0.0 | 3.2 | 0.00 | 0.00 | 0.00 | 92 | 1010.9 |
| 20260510051514 | 8 | 9 | 0.0 | 1.6 | 0.00 | 0.00 | 0.00 | 92 | 1011.1 |
| 20260510051007 | 8 | 51 | 0.0 | 3.2 | 0.00 | 0.00 | 0.00 | 92 | 1011.1 |
| 20260510050504 | 8 | 309 | 0.0 | 3.2 | 0.00 | 0.00 | 0.00 | 92 | 1011.2 |
| 20260510050016 | 8 | 265 | 0.0 | 1.6 | 0.00 | 0.00 | 0.00 | 92 | 1011.2 |
| 20260510045511 | 8 | 34 | 0.0 | 1.6 | 0.00 | 0.00 | 0.00 | 92 | 1011.2 |
| 20260510045010 | 8 | 51 | 0.0 | 1.6 | 0.00 | 0.00 | 0.00 | 92 | 1011.3 |
| 20260510041512 | 9 | 9 | 0.0 | 3.2 | 0.00 | 0.00 | 0.00 | 92 | 1011.3 |
| 20260510041004 | 9 | 9 | 0.0 | 1.6 | 0.00 | 0.00 | 0.00 | 92 | 1011.4 |
| 20260510040502 | 9 | 34 | 0.0 | 1.6 | 0.00 | 0.00 | 0.00 | 92 | 1011.4 |
| 20260510040004 | 9 | 93 | 0.0 | 1.6 | 0.00 | 0.00 | 0.00 | 92 | 1011.4 |
| 20260510035504 | 9 | 51 | 0.0 | 1.6 | 0.00 | 0.00 | 0.00 | 92 | 1011.5 |
| 20260510035004 | 9 | 9 | 0.0 | 1.6 | 0.00 | 0.00 | 0.00 | 92 | 1011.5 |
| 20260510034505 | 9 | 9 | 0.0 | 1.6 | 0.00 | 0.00 | 0.00 | 92 | 1011.5 |
| 20260510034004 | 9 | 51 | 0.0 | 1.6 | 0.00 | 0.00 | 0.00 | 92 | 1011.4 |
| 20260510033508 | 10 | 9 | 0.0 | 1.6 | 0.00 | 0.00 | 0.00 | 91 | 1011.4 |
| 20260510033003 | 10 | 51 | 0.0 | 1.6 | 0.00 | 0.00 | 0.00 | 91 | 1011.3 |
| 20260510032503 | 10 | 93 | 0.0 | 1.6 | 0.00 | 0.00 | 0.00 | 91 | 1011.2 |
| 20260510032006 | 10 | 9 | 0.0 | 3.2 | 0.00 | 0.00 | 0.00 | 92 | 1011.2 |
| 20260510031507 | 10 | 9 | 0.0 | 3.2 | 0.00 | 0.00 | 0.00 | 92 | 1011.2 |
| 20260510031002 | 10 | 9 | 0.0 | 1.6 | 0.00 | 0.00 | 0.00 | 92 | 1011.2 |
| 20260510030503 | 10 | 51 | 0.0 | 1.6 | 0.00 | 0.00 | 0.00 | 91 | 1011.1 |
| 20260510030005 | 10 | 9 | 0.0 | 1.6 | 0.00 | 0.00 | 0.00 | 91 | 1011.0 |
| 20260510025503 | 10 | 93 | 0.0 | 1.6 | 0.00 | 0.00 | 0.00 | 92 | 1010.9 |
| 20260510025006 | 10 | 325 | 0.0 | 1.6 | 0.00 | 0.00 | 0.00 | 91 | 1011.0 |
| 20260510024505 | 10 | 9 | 0.0 | 1.6 | 0.00 | 0.00 | 0.00 | 91 | 1010.9 |
| 20260510024005 | 10 | 9 | 0.0 | 1.6 | 0.00 | 0.00 | 0.00 | 91 | 1010.9 |
| 20260510023502 | 10 | 9 | 0.0 | 1.6 | 0.00 | 0.00 | 0.00 | 91 | 1010.8 |
| 20260510023003 | 10 | 137 | 0.0 | 3.2 | 0.00 | 0.00 | 0.00 | 91 | 1010.8 |
| 20260510022504 | 10 | 51 | 0.0 | 3.2 | 0.00 | 0.00 | 0.00 | 91 | 1010.9 |
| 20260510022007 | 10 | 26 | 0.0 | 3.2 | 0.00 | 0.00 | 0.00 | 91 | 1011.0 |
| 20260510021511 | 10 | 9 | 0.0 | 3.2 | 0.00 | 0.00 | 0.00 | 91 | 1010.9 |
| 20260510021004 | 11 | 51 | 0.0 | 3.2 | 0.00 | 0.00 | 0.00 | 91 | 1010.9 |
| 20260510020507 | 11 | 265 | 0.0 | 3.2 | 0.00 | 0.00 | 0.00 | 91 | 1010.9 |
| 20260510020012 | 11 | 9 | 0.0 | 1.6 | 0.00 | 0.00 | 0.00 | 91 | 1010.9 |
| 20260510015503 | 11 | 9 | 0.0 | 1.6 | 0.00 | 0.00 | 0.00 | 91 | 1010.9 |
| 20260510015003 | 11 | 9 | 0.0 | 3.2 | 0.00 | 0.00 | 0.00 | 91 | 1010.9 |
| 20260510014509 | 11 | 9 | 0.0 | 3.2 | 0.00 | 0.00 | 0.00 | 91 | 1010.8 |
| 20260510014003 | 11 | 26 | 0.0 | 1.6 | 0.00 | 0.00 | 0.00 | 91 | 1010.7 |
| 20260510013504 | 11 | 9 | 0.0 | 1.6 | 0.00 | 0.00 | 0.00 | 91 | 1010.7 |
| 20260510013007 | 11 | 9 | 0.0 | 1.6 | 0.00 | 0.00 | 0.00 | 91 | 1010.6 |
| 20260510012504 | 11 | 51 | 0.0 | 1.6 | 0.00 | 0.00 | 0.00 | 91 | 1010.7 |
| 20260510012003 | 11 | 9 | 0.0 | 1.6 | 0.00 | 0.00 | 0.00 | 91 | 1010.6 |
| 20260510011508 | 11 | 9 | 0.0 | 1.6 | 0.00 | 0.00 | 0.00 | 90 | 1010.5 |
| 20260510011005 | 12 | 9 | 0.0 | 1.6 | 0.00 | 0.00 | 0.00 | 90 | 1010.6 |
| 20260510010507 | 12 | 93 | 0.0 | 1.6 | 0.00 | 0.00 | 0.00 | 90 | 1010.4 |
| 20260510010003 | 12 | 9 | 0.0 | 1.6 | 0.00 | 0.00 | 0.00 | 89 | 1010.4 |
| 20260510005504 | 12 | 9 | 0.0 | 1.6 | 0.00 | 0.00 | 0.00 | 88 | 1010.3 |
| 20260510005007 | 12 | 93 | 0.0 | 1.6 | 0.00 | 0.00 | 0.00 | 89 | 1010.1 |
| 20260510004522 | 12 | 51 | 0.0 | 1.6 | 0.00 | 0.00 | 0.00 | 89 | 1010.1 |
| 20260510004006 | 12 | 51 | 0.0 | 1.6 | 0.00 | 0.00 | 0.00 | 88 | 1010.1 |
| 20260510003508 | 12 | 93 | 0.0 | 1.6 | 0.00 | 0.00 | 0.00 | 88 | 1010.2 |
| 20260510003018 | 13 | 51 | 0.0 | 1.6 | 0.00 | 0.00 | 0.00 | 88 | 1010.3 |
| 20260510002503 | 13 | 9 | 0.0 | 1.6 | 0.00 | 0.00 | 0.00 | 87 | 1010.2 |
| 20260510002006 | 13 | 178 | 0.0 | 3.2 | 0.00 | 0.00 | 0.00 | 87 | 1010.1 |
| 20260510001512 | 13 | 93 | 0.0 | 3.2 | 0.00 | 0.00 | 0.00 | 88 | 1010.1 |
| 20260510001008 | 13 | 9 | 0.0 | 3.2 | 0.00 | 0.00 | 0.00 | 88 | 1010.1 |
| 20260510000504 | 13 | 9 | 0.0 | 1.6 | 0.00 | 0.00 | 0.00 | 87 | 1010.0 |
| 20260510000009 | 14 | 51 | 0.0 | 3.2 | 0.00 | 0.00 | 0.00 | 87 | 1010.1 |
| 20260509235506 | 14 | 9 | 0.0 | 3.2 | 0.00 | 0.00 | 0.00 | 87 | 1010.0 |
| 20260509235009 | 14 | 9 | 0.0 | 3.2 | 0.00 | 0.00 | 0.00 | 86 | 1010.0 |
| 20260509234519 | 15 | 51 | 0.0 | 3.2 | 0.00 | 0.00 | 0.00 | 86 | 1010.1 |
| 20260509234006 | 15 | 9 | 0.0 | 3.2 | 0.00 | 0.00 | 0.00 | 86 | 1010.2 |
| 20260509233506 | 15 | 9 | 0.0 | 3.2 | 0.00 | 0.00 | 0.00 | 86 | 1010.1 |
| 20260509233006 | 15 | 61 | 0.0 | 3.2 | 0.00 | 0.00 | 0.00 | 86 | 1010.0 |
| 20260509232504 | 15 | 93 | 0.0 | 3.2 | 0.00 | 0.00 | 0.00 | 86 | 1010.0 |
| 20260509232009 | 15 | 34 | 0.0 | 3.2 | 0.00 | 0.00 | 0.00 | 86 | 1010.0 |
| 20260509231520 | 15 | 41 | 0.0 | 6.4 | 0.00 | 0.00 | 0.00 | 85 | 1010.0 |
| 20260509231004 | 16 | 34 | 1.6 | 6.4 | 0.00 | 0.00 | 0.00 | 85 | 1010.0 |
| 20260509230506 | 16 | 309 | 0.0 | 4.8 | 0.00 | 0.00 | 0.00 | 85 | 1010.0 |
| 20260509230015 | 16 | 26 | 0.0 | 4.8 | 0.00 | 0.00 | 0.00 | 84 | 1009.9 |
| 20260509225509 | 16 | 298 | 1.6 | 4.8 | 0.00 | 0.00 | 0.00 | 85 | 1009.9 |
| 20260509225003 | 16 | 22 | 0.0 | 3.2 | 0.00 | 0.00 | 0.00 | 86 | 1009.8 |
| 20260509224527 | 16 | 93 | 0.0 | 3.2 | 0.00 | 0.00 | 0.00 | 87 | 1009.8 |
| 20260509224009 | 16 | 93 | 0.0 | 3.2 | 0.00 | 0.00 | 0.00 | 86 | 1009.9 |
| 20260509223506 | 15 | 309 | 0.0 | 3.2 | 0.00 | 0.00 | 0.00 | 86 | 1010.0 |
| 20260509223007 | 15 | 120 | 0.0 | 3.2 | 0.00 | 0.00 | 0.00 | 85 | 1010.0 |
| 20260509222506 | 15 | 162 | 1.6 | 3.2 | 0.00 | 0.00 | 0.00 | 85 | 1010.1 |
| 20260509222009 | 15 | 292 | 0.0 | 3.2 | 0.00 | 0.00 | 0.00 | 85 | 1010.1 |
| 20260509221512 | 15 | 120 | 0.0 | 4.8 | 0.00 | 0.00 | 0.00 | 86 | 1010.1 |
| 20260509221007 | 15 | 93 | 1.6 | 4.8 | 0.00 | 0.00 | 0.00 | 85 | 1010.1 |
| 20260509220515 | 15 | 51 | 1.6 | 4.8 | 0.00 | 0.00 | 0.00 | 86 | 1010.1 |
| 20260509220025 | 15 | 221 | 1.6 | 4.8 | 0.00 | 0.00 | 0.00 | 86 | 1010.0 |
| 20260509215502 | 15 | 34 | 0.0 | 4.8 | 0.00 | 0.00 | 0.00 | 85 | 1010.0 |
| 20260509215006 | 15 | 137 | 1.6 | 4.8 | 0.00 | 0.00 | 0.00 | 85 | 1010.0 |
| 20260509214519 | 15 | 61 | 0.0 | 4.8 | 0.00 | 0.00 | 0.00 | 85 | 1009.9 |
| 20260509214002 | 15 | 111 | 0.0 | 4.8 | 0.00 | 0.00 | 0.00 | 87 | 1010.0 |
| 20260509213503 | 15 | 34 | 0.0 | 4.8 | 0.00 | 0.00 | 0.00 | 86 | 1010.0 |
| 20260509213015 | 15 | 93 | 1.6 | 4.8 | 0.00 | 0.00 | 0.00 | 86 | 1010.0 |
| 20260509212509 | 15 | 291 | 0.0 | 4.8 | 0.00 | 0.00 | 0.00 | 86 | 1010.0 |
| 20260509212006 | 15 | 51 | 0.0 | 6.4 | 0.00 | 0.00 | 0.00 | 86 | 1010.0 |
| 20260509211502 | 15 | 9 | 0.0 | 8.0 | 0.00 | 0.00 | 0.00 | 86 | 1009.9 |
| 20260509211003 | 15 | 178 | 1.6 | 8.0 | 0.00 | 0.00 | 0.00 | 85 | 1009.9 |
| 20260509210503 | 15 | 126 | 0.0 | 4.8 | 0.00 | 0.00 | 0.00 | 85 | 1009.9 |
| 20260509210008 | 15 | 309 | 1.6 | 4.8 | 0.00 | 0.00 | 0.00 | 85 | 1009.9 |
| 20260509205503 | 16 | 44 | 0.0 | 4.8 | 0.00 | 0.00 | 0.00 | 85 | 1010.0 |
| 20260509205002 | 16 | 76 | 0.0 | 4.8 | 0.00 | 0.00 | 0.00 | 86 | 1010.0 |
| 20260509204525 | 16 | 111 | 0.0 | 3.2 | 0.00 | 0.00 | 0.00 | 86 | 1010.0 |
| 20260509204002 | 16 | 9 | 1.6 | 3.2 | 0.00 | 0.00 | 0.00 | 85 | 1010.1 |
| 20260509203503 | 16 | 162 | 0.0 | 3.2 | 0.00 | 0.00 | 0.00 | 85 | 1010.0 |
| 20260509203005 | 16 | 144 | 1.6 | 3.2 | 0.00 | 0.00 | 0.00 | 84 | 1010.0 |
| 20260509202503 | 16 | 34 | 0.0 | 3.2 | 0.00 | 0.00 | 0.00 | 83 | 1010.2 |
| 20260509202004 | 16 | 221 | 0.0 | 4.8 | 0.00 | 0.00 | 0.00 | 82 | 1010.1 |
| 20260509201502 | 16 | 68 | 0.0 | 6.4 | 0.00 | 0.00 | 0.00 | 81 | 1010.3 |
| 20260509201003 | 16 | 319 | 0.0 | 6.4 | 0.00 | 0.00 | 0.00 | 81 | 1010.2 |
| 20260509200505 | 16 | 111 | 1.6 | 4.8 | 0.00 | 0.00 | 0.00 | 81 | 1010.1 |
| 20260509200003 | 16 | 68 | 3.2 | 6.4 | 0.00 | 0.00 | 0.00 | 82 | 1010.1 |
| 20260509195504 | 16 | 309 | 1.6 | 8.0 | 0.00 | 0.00 | 0.00 | 80 | 1010.1 |
| 20260509195004 | 16 | 73 | 1.6 | 14.5 | 0.00 | 0.00 | 0.00 | 82 | 1010.1 |
| 20260509194502 | 16 | 9 | 3.2 | 14.5 | 0.00 | 0.00 | 0.00 | 83 | 1010.1 |
| 20260509194003 | 16 | 51 | 3.2 | 14.5 | 0.00 | 0.00 | 0.00 | 83 | 1010.2 |
| 20260509193525 | 16 | 93 | 4.8 | 12.9 | 0.00 | 0.00 | 0.00 | 82 | 1010.2 |
| 20260509193011 | 16 | 16 | 4.8 | 12.9 | 0.00 | 0.00 | 0.00 | 84 | 1010.2 |
| 20260509192502 | 16 | 137 | 3.2 | 6.4 | 0.00 | 0.00 | 0.00 | 85 | 1010.3 |
| 20260509192004 | 15 | 9 | 3.2 | 6.4 | 0.00 | 0.00 | 0.00 | 84 | 1010.4 |
| 20260509191511 | 15 | 292 | 1.6 | 12.9 | 0.00 | 0.00 | 0.00 | 84 | 1010.5 |
| 20260509191007 | 15 | 93 | 4.8 | 12.9 | 0.00 | 0.00 | 0.00 | 83 | 1010.7 |